Regional Weather Roundup
Issued by NWS

Home | Current Version | Previous Version | Text Only | Print | Product List | Glossary On
Versions: 1 2 3 4 5 6 7 8 9 10 11 12 13 14 15 16 17 18 19 20 21 22 23 24 25 26 27 28 29 30 31 32 33 34 35 36 37 38 39 40 41 42 43 44 45 46 47 48 49 50
000
ASUS43 KDTX 290510
RWRMI
MICHIGAN HOURLY REGIONAL WEATHER ROUNDUP
NATIONAL WEATHER SERVICE DETROIT/PONTIAC MI
1200 AM EST SAT NOV 29 2014

NOTE: "FAIR" INDICATES FEW OR NO CLOUDS BELOW 12,000 FEET WITH NO
SIGNIFICANT WEATHER AND/OR OBSTRUCTION TO VISIBILITY.

MIZ047>049-052>055-059>063-066>070-074>076-081>083-290600-
SOUTHEAST LOWER MICHIGAN

CITY           SKY/WX    TMP DP  RH WIND       PRES   REMARKS
ADRIAN         MOCLDY    28  22  78 SE5       30.06F
ALMA           CLOUDY    26  24  93 SE7       30.02F
ANN ARBOR      CLOUDY    28  22  78 SE6       30.06F
BAD AXE        LGT SNOW  25  23  93 S9        30.08F
DETROIT CITY   CLOUDY    31  23  72 S5        30.10F
DETROIT        CLOUDY    30  23  75 SE5       30.09F
FLINT          CLOUDY    29  22  75 S8        30.05F
GROSSE ILE     CLOUDY    32  25  74 S14       30.08F
HILLSDALE      CLOUDY    28  22  77 S8        29.99F
HOWELL         CLOUDY    27  22  82 SE8       30.03F

CITY           SKY/WX    TMP DP  RH WIND       PRES   REMARKS
JACKSON        FLURRIES  28  21  75 S8        30.02F
LAMBERTVILLE   CLOUDY    32  23  69 S3        30.07F
LANSING        CLOUDY    28  21  75 S10       30.03S
LAPEER         NOT AVBL
MASON          CLOUDY    28  23  80 SE9       30.02F
MONROE         CLOUDY    30  25  80 CALM      30.07F
MT. CLEMENS    CLOUDY    30  28  91 S9        30.08F
PONTIAC        FLURRIES  27  22  81 SE9       30.04F
PORT HOPE        N/A     24  20  84 S5        30.07F
PORT HURON     CLOUDY    27  25  93 SE5       30.11F
TRI CITIES     CLOUDY    27  22  81 SE9       30.05F
YPSILANTI      CLOUDY    32  23  69 SE8       30.08F
$$
MIZ043>046-050>051-056>058-064>065-071>073-077>080-290600-
SOUTHWEST LOWER MICHIGAN

CITY           SKY/WX    TMP DP  RH WIND       PRES   REMARKS
BATTLE CREEK   CLOUDY    31  20  63 S12       29.99F
BENTON HARBOR  CLOUDY    30  22  72 S8        29.96S
BIG RAPIDS     FLURRIES  25  24  95 SE6       29.97F
COLDWATER      CLOUDY    32  22  65 S6        30.00F
HOLLAND        CLOUDY    31  23  72 SE7       29.97F
GRAND RAPIDS   LGT SNOW  29  23  78 S10       29.99F
KALAMAZOO      CLOUDY    30  21  69 S8        29.97F
MARSHALL       CLOUDY    29  21  71 S6        30.00F
MUSKEGON       MIX PCPN  29  21  72 SE10      29.96F
$$
MIZ016>042-290600-
NORTHERN LOWER MICHIGAN

CITY           SKY/WX    TMP DP  RH WIND       PRES   REMARKS
ALPENA         CLOUDY    23  21  92 S7        30.03F
BEAVER ISLAND  CLOUDY    29  27  90 SE10G16   29.93F
BELLAIRE       CLOUDY    26  20  80 S7        29.98F
CADILLAC       CLOUDY    23  19  87 SE6       29.95F
CHARLEVOIX     CLOUDY    24  21  85 SE10      29.98F
FRANKFORT      CLOUDY    26  23  88 SE15      29.94F
GAYLORD        CLOUDY    21  18  88 S13       29.95F
GRAYLING       CLOUDY    23  21  91 SE7       29.98F
HARBOR SPRINGS CLOUDY    24  19  81 E3        29.97F
HOUGHTON LAKE  CLOUDY    22  19  89 SE6       29.99F
MANISTEE       CLOUDY    27  19  74 SE8       29.95F
OSCODA         CLOUDY    26  23  87 S8        30.05F
PELLSTON       CLOUDY    23  18  81 SE7       29.98F
TRAVERSE CITY  CLOUDY    26  19  74 VRB3      29.96F
$$
MIZ007>008-015-290600-
EASTERN UPPER MICHIGAN

CITY           SKY/WX    TMP DP  RH WIND       PRES   REMARKS
KINROSS        CLOUDY    21  21 100 SE8       29.98F
MACKINAC ISLAN CLOUDY    25  20  82 S12G18    29.97F
NEWBERRY       CLOUDY    22  21  96 E6        29.93F
S. S. MARIE    CLOUDY    22  19  89 E3        30.02R
$$
MIZ004>006-011>014-085-290600-
CENTRAL UPPER MICHIGAN

CITY           SKY/WX    TMP DP  RH WIND       PRES   REMARKS
MANISTIQUE     CLOUDY    31  29  92 S13G23    29.90F
ESCANABA       CLOUDY    27  21  80 SW12      29.87F
MENOMINEE      CLOUDY    21  18  86 CALM      29.87F
SAWYER-GWINN   CLOUDY    24  22  94 S8        29.80F
$$
MIZ001>003-009>011-084-290600-
WESTERN UPPER MICHIGAN

CITY           SKY/WX    TMP DP  RH WIND       PRES   REMARKS
IRON MOUNTAIN  CLOUDY    15  11  83 CALM      29.82F
HOUGHTON       CLOUDY    19  13  77 S6        29.82F
COPPER HARBOR    N/A     27  21  78 MISG      29.83F
IRONWOOD       CLOUDY    18  18 100 CALM      29.75F
$$

ABBREVIATIONS USED IN REMARKS
   TC - TEMPERATURE IN CELSIUS
  WCI - WIND CHILL INDEX
   HX - HEAT INDEX
  VSB - VISIBILITY




USA.gov is the U.S. government's official web portal to all federal, state and local government web resources and services.